AI4Y Weather Reports


time (UTC)temp
C
wind
direction
speed
KPH
gust
KPH
rain 1hr
cm
rain 24hr
cm
rain mn
cm
humidity
%
barometer
mb
20260502195018 18 290 8.0 14.5 0.00 0.00 0.00 35 1011.7
20260502194039 18 304 6.4 17.7 0.00 0.00 0.00 35 1011.7
20260502193019 18 312 6.4 12.9 0.00 0.00 0.00 35 1011.7
20260502192015 18 284 6.4 20.9 0.00 0.00 0.00 37 1011.6
20260502191056 18 299 8.0 14.5 0.00 0.00 0.00 37 1011.8
20260502190016 17 309 6.4 17.7 0.00 0.00 0.00 38 1011.9
20260502185016 16 305 4.8 14.5 0.00 0.00 0.00 39 1012.1
20260502184037 17 307 8.0 19.3 0.00 0.00 0.00 38 1012.2
20260502183016 17 329 6.4 16.1 0.00 0.00 0.00 38 1012.4
20260502182016 17 310 6.4 12.9 0.00 0.00 0.00 38 1012.4
20260502181017 16 308 6.4 12.9 0.00 0.00 0.00 39 1012.5
20260502164018 15 316 8.0 16.1 0.00 0.00 0.00 42 1014.1
20260502163018 15 301 8.0 16.1 0.00 0.00 0.00 43 1014.3
20260502162018 14 301 4.8 12.9 0.00 0.00 0.00 45 1014.4
20260502161016 13 292 6.4 14.5 0.00 0.00 0.00 45 1014.5
20260502152016 12 313 4.8 12.9 0.00 0.00 0.00 51 1014.8
20260502151016 12 308 6.4 12.9 0.00 0.00 0.00 51 1014.8
20260502123015 10 307 3.2 8.0 0.00 0.00 0.00 54 1014.6
20260502122015 10 302 4.8 19.3 0.00 0.00 0.00 53 1014.5
20260502121016 10 301 3.2 9.7 0.00 0.00 0.00 53 1014.5
20260502115016 10 297 4.8 12.9 0.00 0.00 0.00 53 1014.1
20260502114016 10 308 6.4 12.9 0.00 0.00 0.00 53 1014.0
20260502113016 10 307 6.4 11.3 0.00 0.00 0.00 53 1013.7
20260502112017 10 305 8.0 17.7 0.00 0.00 0.00 55 1013.7
20260502111017 10 306 4.8 9.7 0.00 0.00 0.00 56 1013.7
20260502110017 10 305 3.2 6.4 0.00 0.00 0.00 56 1013.6
20260502105037 10 301 3.2 6.4 0.00 0.00 0.00 55 1013.7
20260502104038 10 303 4.8 9.7 0.00 0.00 0.00 54 1013.7
20260502103017 10 302 4.8 11.3 0.00 0.00 0.00 54 1013.7
20260502102017 10 306 6.4 11.3 0.00 0.00 0.00 54 1013.8
20260502101017 10 304 8.0 12.9 0.00 0.00 0.00 55 1013.9
20260502091018 10 301 3.2 4.8 0.00 0.00 0.00 65 1013.9
20260502071017 11 308 9.7 20.9 0.00 0.00 0.00 66 1013.0
20260502070017 11 303 6.4 14.5 0.00 0.00 0.00 66 1013.2
20260502065017 11 293 3.2 8.0 0.00 0.00 0.00 66 1013.3
20260502064017 11 301 3.2 6.4 0.00 0.00 0.00 65 1013.1
20260502063018 11 305 6.4 16.1 0.00 0.00 0.00 65 1013.2
20260502062019 11 301 6.4 14.5 0.00 0.00 0.00 65 1013.3
20260502061038 11 308 6.4 14.5 0.00 0.00 0.00 66 1013.4
20260502060101 12 308 6.4 12.9 0.00 0.00 0.00 66 1013.3
20260502055038 11 310 9.7 17.7 0.00 0.00 0.00 68 1013.4
20260502054018 12 309 4.8 9.7 0.00 0.00 0.00 68 1013.4
20260502053035 12 313 3.2 6.4 0.00 0.00 0.00 68 1013.5
20260502052015 12 314 3.2 6.4 0.00 0.00 0.00 67 1013.5
20260502051017 12 306 3.2 6.4 0.00 0.00 0.00 66 1013.5
20260502050017 12 305 4.8 9.7 0.00 0.00 0.00 66 1013.4
20260502045017 12 307 6.4 11.3 0.00 0.00 0.00 66 1013.3
20260502044017 12 306 6.4 12.9 0.00 0.00 0.00 66 1013.3
20260502043017 13 305 4.8 9.7 0.00 0.00 0.00 65 1013.3
20260502042018 13 304 4.8 8.0 0.00 0.00 0.00 64 1013.3
20260502041018 13 302 4.8 8.0 0.00 0.00 0.00 63 1013.3
20260502040018 14 303 4.8 9.7 0.00 0.00 0.00 63 1013.2
20260502035016 14 300 6.4 12.9 0.00 0.00 0.00 63 1013.2
20260502034016 13 301 4.8 12.9 0.00 0.00 0.00 64 1013.2
20260502033016 12 302 4.8 11.3 0.00 0.00 0.00 72 1013.1
20260502032016 12 189 1.6 3.2 0.00 0.00 0.00 79 1013.1
20260502031016 12 170 1.6 3.2 0.00 0.00 0.00 77 1012.9
20260502030017 12 57 1.6 4.8 0.00 0.00 0.00 79 1012.7
20260502025017 12 173 3.2 4.8 0.00 0.00 0.00 76 1012.8
20260502024037 12 303 1.6 4.8 0.00 0.00 0.00 76 1012.8
20260502023017 12 127 1.6 3.2 0.00 0.00 0.00 76 1012.3
20260502022017 12 118 3.2 3.2 0.00 0.00 0.00 76 1012.1
20260502021057 13 116 1.6 4.8 0.00 0.00 0.00 74 1011.8
20260502020037 13 116 3.2 4.8 0.00 0.00 0.00 71 1011.7
20260502015037 13 128 1.6 3.2 0.00 0.00 0.00 69 1011.7
20260502014018 13 92 0.0 1.6 0.00 0.00 0.00 67 1011.8
20260502013017 14 154 0.0 3.2 0.00 0.00 0.00 65 1011.7
20260502012021 14 133 0.0 1.6 0.00 0.00 0.00 64 1011.6
20260502011018 15 94 0.0 3.2 0.00 0.00 0.00 63 1011.6
20260502010018 15 117 1.6 3.2 0.00 0.00 0.00 62 1011.5
20260502005018 15 112 3.2 6.4 0.00 0.00 0.00 62 1011.1
20260502004016 15 101 1.6 4.8 0.00 0.00 0.00 61 1011.1
20260502003016 15 94 3.2 8.0 0.00 0.00 0.00 61 1010.9
20260502002016 15 110 1.6 3.2 0.00 0.00 0.00 60 1010.8
20260502001016 15 170 1.6 4.8 0.00 0.00 0.00 59 1010.6
20260502000016 16 222 1.6 4.8 0.00 0.00 0.00 57 1010.4
20260501235017 16 178 1.6 6.4 0.00 0.00 0.00 55 1010.3
20260501234047 17 215 1.6 4.8 0.00 0.00 0.00 54 1010.4
20260501233017 18 183 3.2 6.4 0.00 0.00 0.00 52 1010.4
20260501232017 18 230 1.6 4.8 0.00 0.00 0.00 52 1010.5
20260501231017 18 187 3.2 6.4 0.00 0.00 0.00 50 1010.4
20260501230017 18 196 3.2 6.4 0.00 0.00 0.00 50 1010.4
20260501225017 19 219 3.2 8.0 0.00 0.00 0.00 50 1010.4
20260501224017 19 191 3.2 8.0 0.00 0.00 0.00 49 1010.4
20260501223018 19 166 6.4 9.7 0.00 0.00 0.00 48 1010.4
20260501222017 20 181 4.8 9.7 0.00 0.00 0.00 47 1010.5
20260501221018 20 156 6.4 9.7 0.00 0.00 0.00 47 1010.5
20260501215018 20 174 4.8 11.3 0.00 0.00 0.00 45 1010.7
20260501214038 21 204 4.8 8.0 0.00 0.00 0.00 43 1010.7
20260501213018 21 209 4.8 8.0 0.00 0.00 0.00 43 1010.7
20260501212018 21 196 3.2 9.7 0.00 0.00 0.00 43 1010.8
20260501211016 21 201 4.8 9.7 0.00 0.00 0.00 43 1010.8
20260501210016 22 178 4.8 9.7 0.00 0.00 0.00 42 1010.9
20260501205016 22 223 3.2 8.0 0.00 0.00 0.00 42 1011.0
20260501204016 21 211 3.2 6.4 0.00 0.00 0.00 44 1011.1
20260501203016 21 194 4.8 9.7 0.00 0.00 0.00 42 1011.3
20260501202016 21 212 3.2 8.0 0.00 0.00 0.00 44 1011.3
20260501201016 21 196 4.8 12.9 0.00 0.00 0.00 43 1011.6
20260501200016 21 209 3.2 8.0 0.00 0.00 0.00 43 1011.8